Location: Unspecified
(43.8463°N, 0.0000°E)
Time: 05:51:52
(UTC+00:00)

Vanguard 2 Rocket - Visible Passes

Search period start: 04 April 2026 00:00
Search period end: 14 April 2026 00:00
Orbit: 554 x 3286 km, 32.9° (Epoch: 29 March)

Date Brightness Start Highest point End Pass type
(mag) Time Alt. Az. Time Alt. Az. Time Alt. Az.
4 Apr 8.4 04:31:21 12° SW 04:33:42 15° SSW 04:37:32 10° SSE visible
5 Apr 8.5 03:30:17 15° S 03:30:17 15° S 03:32:30 10° SSE visible
10 Apr 8.9 20:57:02 10° SSW 20:59:06 15° SSW 20:59:06 15° SSW visible
11 Apr 8.6 19:51:48 10° SSW 19:56:30 16° SSE 19:58:15 14° SSE visible
12 Apr 8.4 20:58:16 10° SW 21:02:44 22° S 21:02:44 22° S visible
13 Apr 8.4 19:52:20 10° SW 19:59:08 22° SSE 20:01:48 18° SE visible
13 Apr 9.1 22:06:03 10° WSW 22:07:09 14° SW 22:07:09 14° SW visible
